Time,TemperatureF,DewpointF,PressureIn,WindDirection,WindDirectionDegrees,WindSpeedMPH,WindSpeedGustMPH,Humidity,HourlyPrecipIn,Conditions,Clouds,dailyrainin,SoftwareType,DateUTC
2013-01-10 00:02:00,25.0,19.0,30.41,North,-999,-999.0,-999.0,77,-99.99,,,-99.99,,2013-01-10 06:02:00,
2013-01-10 00:12:00,25.0,19.0,30.41,North,-999,-999.0,-999.0,77,-99.99,,,-99.99,,2013-01-10 06:12:00,
2013-01-10 00:22:00,25.0,19.0,30.41,North,-999,-999.0,-999.0,77,-99.99,,,-99.99,,2013-01-10 06:22:00,
2013-01-10 00:32:00,25.0,19.0,30.41,North,-999,-999.0,-999.0,78,-99.99,,,-99.99,,2013-01-10 06:32:00,
2013-01-10 00:42:00,25.0,19.0,30.41,North,-999,-999.0,-999.0,78,-99.99,,,-99.99,,2013-01-10 06:42:00,
2013-01-10 00:52:00,25.0,19.0,30.41,North,-999,-999.0,-999.0,78,-99.99,,,-99.99,,2013-01-10 06:52:00,
2013-01-10 01:02:00,25.0,19.0,30.41,North,-999,-999.0,-999.0,77,-99.99,,,-99.99,,2013-01-10 07:02:00,
2013-01-10 01:12:00,25.0,19.0,30.41,North,-999,-999.0,-999.0,77,-99.99,,,-99.99,,2013-01-10 07:12:00,
2013-01-10 01:22:00,25.0,19.0,30.38,North,-999,-999.0,-999.0,77,-99.99,,,-99.99,,2013-01-10 07:22:00,
2013-01-10 01:32:00,25.0,19.0,30.41,North,-999,-999.0,-999.0,77,-99.99,,,-99.99,,2013-01-10 07:32:00,
2013-01-10 01:42:00,25.0,19.0,30.41,North,-999,-999.0,-999.0,77,-99.99,,,-99.99,,2013-01-10 07:42:00,
2013-01-10 01:52:00,25.0,19.0,30.41,North,-999,-999.0,-999.0,77,-99.99,,,-99.99,,2013-01-10 07:52:00,
2013-01-10 02:02:00,24.0,18.0,30.41,North,-999,-999.0,-999.0,77,-99.99,,,-99.99,,2013-01-10 08:02:00,
2013-01-10 02:12:00,24.0,18.0,30.41,North,-999,-999.0,-999.0,77,-99.99,,,-99.99,,2013-01-10 08:12:00,
2013-01-10 02:22:00,22.0,16.0,30.41,North,-999,-999.0,-999.0,76,-99.99,,,-99.99,,2013-01-10 08:22:00,
2013-01-10 02:32:00,21.0,15.0,30.41,North,-999,-999.0,-999.0,77,-99.99,,,-99.99,,2013-01-10 08:32:00,
2013-01-10 02:42:00,21.0,15.0,30.41,North,-999,-999.0,-999.0,77,-99.99,,,-99.99,,2013-01-10 08:42:00,
2013-01-10 02:53:00,21.0,15.0,30.41,North,-999,-999.0,-999.0,77,-99.99,,,-99.99,,2013-01-10 08:53:00,
2013-01-10 03:02:00,23.0,17.0,30.41,North,-999,-999.0,-999.0,79,-99.99,,,-99.99,,2013-01-10 09:02:00,
2013-01-10 03:12:00,23.0,17.0,30.41,North,-999,-999.0,-999.0,79,-99.99,,,-99.99,,2013-01-10 09:12:00,
2013-01-10 03:22:00,24.0,19.0,30.41,North,-999,-999.0,-999.0,80,-99.99,,,-99.99,,2013-01-10 09:22:00,
2013-01-10 03:32:00,26.0,20.0,30.41,North,-999,-999.0,-999.0,79,-99.99,,,-99.99,,2013-01-10 09:32:00,
2013-01-10 03:42:00,26.0,20.0,30.41,North,-999,-999.0,-999.0,79,-99.99,,,-99.99,,2013-01-10 09:42:00,
2013-01-10 03:52:00,26.0,20.0,30.38,North,-999,-999.0,-999.0,78,-99.99,,,-99.99,,2013-01-10 09:52:00,
2013-01-10 04:03:00,26.0,20.0,30.38,North,-999,-999.0,-999.0,77,-99.99,,,-99.99,,2013-01-10 10:03:00,
2013-01-10 04:12:00,26.0,20.0,30.38,North,-999,-999.0,-999.0,77,-99.99,,,-99.99,,2013-01-10 10:12:00,
2013-01-10 04:22:00,26.0,20.0,30.38,North,-999,-999.0,-999.0,77,-99.99,,,-99.99,,2013-01-10 10:22:00,
2013-01-10 04:32:00,26.0,20.0,30.38,North,-999,-999.0,-999.0,77,-99.99,,,-99.99,,2013-01-10 10:32:00,
2013-01-10 04:42:00,26.0,20.0,30.38,North,-999,-999.0,-999.0,77,-99.99,,,-99.99,,2013-01-10 10:42:00,
2013-01-10 07:22:00,17.0,12.0,30.35,North,-999,-999.0,-999.0,80,-99.99,,,-99.99,,2013-01-10 13:22:00,
2013-01-10 07:30:00,17.0,12.0,30.35,North,-999,-999.0,-999.0,81,-99.99,,,-99.99,,2013-01-10 13:30:00,
2013-01-10 07:33:00,17.0,12.0,30.35,North,-999,-999.0,-999.0,80,-99.99,,,-99.99,,2013-01-10 13:33:00,
2013-01-10 07:42:00,17.0,12.0,30.35,North,-999,-999.0,-999.0,80,-99.99,,,-99.99,,2013-01-10 13:42:00,
2013-01-10 07:53:00,17.0,12.0,30.35,North,-999,-999.0,-999.0,81,-99.99,,,-99.99,,2013-01-10 13:53:00,
2013-01-10 08:02:00,17.0,12.0,30.35,North,-999,-999.0,-999.0,81,-99.99,,,-99.99,,2013-01-10 14:02:00,
2013-01-10 08:12:00,17.0,12.0,30.35,North,-999,-999.0,-999.0,81,-99.99,,,-99.99,,2013-01-10 14:12:00,
2013-01-10 08:22:00,17.0,12.0,30.35,North,-999,-999.0,-999.0,81,-99.99,,,-99.99,,2013-01-10 14:22:00,
2013-01-10 08:53:00,17.0,11.0,30.35,North,-999,-999.0,-999.0,78,-99.99,,,-99.99,,2013-01-10 14:53:00,
2013-01-10 09:03:00,18.0,13.0,30.32,North,-999,-999.0,-999.0,79,-99.99,,,-99.99,,2013-01-10 15:03:00,
2013-01-10 09:12:00,18.0,13.0,30.32,North,-999,-999.0,-999.0,79,-99.99,,,-99.99,,2013-01-10 15:12:00,
2013-01-10 09:22:00,19.0,14.0,30.32,North,-999,-999.0,-999.0,79,-99.99,,,-99.99,,2013-01-10 15:22:00,
2013-01-10 09:33:00,20.0,14.0,30.32,North,-999,-999.0,-999.0,77,-99.99,,,-99.99,,2013-01-10 15:33:00,
2013-01-10 09:43:00,20.0,14.0,30.32,North,-999,-999.0,-999.0,77,-99.99,,,-99.99,,2013-01-10 15:43:00,
2013-01-10 09:53:00,21.0,15.0,30.32,North,-999,-999.0,-999.0,76,-99.99,,,-99.99,,2013-01-10 15:53:00,
2013-01-10 10:02:00,22.0,15.0,30.32,North,-999,-999.0,-999.0,75,-99.99,,,-99.99,,2013-01-10 16:02:00,
2013-01-10 10:13:00,22.0,15.0,30.32,North,-999,-999.0,-999.0,75,-99.99,,,-99.99,,2013-01-10 16:13:00,
2013-01-10 10:23:00,26.0,19.0,30.32,North,-999,-999.0,-999.0,74,-99.99,,,-99.99,,2013-01-10 16:23:00,
2013-01-10 10:33:00,29.0,21.0,30.29,North,-999,-999.0,-999.0,72,-99.99,,,-99.99,,2013-01-10 16:33:00,
2013-01-10 10:43:00,29.0,21.0,30.29,North,-999,-999.0,-999.0,72,-99.99,,,-99.99,,2013-01-10 16:43:00,
2013-01-10 10:53:00,31.0,22.0,30.29,North,-999,-999.0,-999.0,70,-99.99,,,-99.99,,2013-01-10 16:53:00,
2013-01-10 11:03:00,34.0,24.0,30.29,North,-999,-999.0,-999.0,66,-99.99,,,-99.99,,2013-01-10 17:03:00,
2013-01-10 11:12:00,34.0,24.0,30.29,North,-999,-999.0,-999.0,66,-99.99,,,-99.99,,2013-01-10 17:12:00,
2013-01-10 11:22:00,36.0,24.0,30.26,North,-999,-999.0,-999.0,62,-99.99,,,-99.99,,2013-01-10 17:22:00,
2013-01-10 11:33:00,35.0,24.0,30.26,North,-999,-999.0,-999.0,63,-99.99,,,-99.99,,2013-01-10 17:33:00,
2013-01-10 11:42:00,35.0,24.0,30.26,North,-999,-999.0,-999.0,63,-99.99,,,-99.99,,2013-01-10 17:42:00,
2013-01-10 11:53:00,36.0,24.0,30.23,North,-999,-999.0,-999.0,61,-99.99,,,-99.99,,2013-01-10 17:53:00,
2013-01-10 12:03:00,39.0,25.0,30.20,North,-999,-999.0,-999.0,58,-99.99,,,-99.99,,2013-01-10 18:03:00,
2013-01-10 12:12:00,40.0,25.0,30.20,North,-999,-999.0,-999.0,55,-99.99,,,-99.99,,2013-01-10 18:12:00,
2013-01-10 12:23:00,40.0,25.0,30.20,North,-999,-999.0,-999.0,55,-99.99,,,-99.99,,2013-01-10 18:23:00,
2013-01-10 12:33:00,40.0,26.0,30.20,North,-999,-999.0,-999.0,58,-99.99,,,-99.99,,2013-01-10 18:33:00,
2013-01-10 12:43:00,41.0,26.0,30.17,North,-999,-999.0,-999.0,54,-99.99,,,-99.99,,2013-01-10 18:43:00,
2013-01-10 12:53:00,41.0,26.0,30.17,North,-999,-999.0,-999.0,54,-99.99,,,-99.99,,2013-01-10 18:53:00,
2013-01-10 13:03:00,42.0,27.0,30.14,North,-999,-999.0,-999.0,55,-99.99,,,-99.99,,2013-01-10 19:03:00,
2013-01-10 13:13:00,42.0,26.0,30.14,North,-999,-999.0,-999.0,53,-99.99,,,-99.99,,2013-01-10 19:13:00,
2013-01-10 13:23:00,42.0,26.0,30.14,North,-999,-999.0,-999.0,53,-99.99,,,-99.99,,2013-01-10 19:23:00,
2013-01-10 13:33:00,41.0,26.0,30.14,North,-999,-999.0,-999.0,54,-99.99,,,-99.99,,2013-01-10 19:33:00,
2013-01-10 13:43:00,41.0,26.0,30.14,North,-999,-999.0,-999.0,54,-99.99,,,-99.99,,2013-01-10 19:43:00,
2013-01-10 13:53:00,41.0,26.0,30.11,North,-999,-999.0,-999.0,55,-99.99,,,-99.99,,2013-01-10 19:53:00,
2013-01-10 14:02:00,42.0,25.0,30.11,North,-999,-999.0,-999.0,51,-99.99,,,-99.99,,2013-01-10 20:02:00,
2013-01-10 14:12:00,42.0,25.0,30.11,North,-999,-999.0,-999.0,51,-99.99,,,-99.99,,2013-01-10 20:12:00,
2013-01-10 14:24:00,43.0,25.0,30.11,North,-999,-999.0,-999.0,49,-99.99,,,-99.99,,2013-01-10 20:24:00,
2013-01-10 14:33:00,43.0,26.0,30.11,North,-999,-999.0,-999.0,50,-99.99,,,-99.99,,2013-01-10 20:33:00,
2013-01-10 14:42:00,43.0,26.0,30.11,North,-999,-999.0,-999.0,50,-99.99,,,-99.99,,2013-01-10 20:42:00,
2013-01-10 14:53:00,43.0,23.0,30.08,North,-999,-999.0,-999.0,45,-99.99,,,-99.99,,2013-01-10 20:53:00,
2013-01-10 15:03:00,43.0,25.0,30.08,North,-999,-999.0,-999.0,48,-99.99,,,-99.99,,2013-01-10 21:03:00,
2013-01-10 15:12:00,43.0,25.0,30.08,North,-999,-999.0,-999.0,48,-99.99,,,-99.99,,2013-01-10 21:12:00,
2013-01-10 15:23:00,42.0,22.0,30.08,North,-999,-999.0,-999.0,45,-99.99,,,-99.99,,2013-01-10 21:23:00,
2013-01-10 15:33:00,42.0,22.0,30.08,North,-999,-999.0,-999.0,45,-99.99,,,-99.99,,2013-01-10 21:33:00,
2013-01-10 15:42:00,42.0,22.0,30.08,North,-999,-999.0,-999.0,45,-99.99,,,-99.99,,2013-01-10 21:42:00,
2013-01-10 15:53:00,42.0,23.0,30.08,North,-999,-999.0,-999.0,47,-99.99,,,-99.99,,2013-01-10 21:53:00,
2013-01-10 16:03:00,41.0,21.0,30.05,North,-999,-999.0,-999.0,44,-99.99,,,-99.99,,2013-01-10 22:03:00,
2013-01-10 16:12:00,41.0,22.0,30.05,North,-999,-999.0,-999.0,47,-99.99,,,-99.99,,2013-01-10 22:12:00,
2013-01-10 16:25:00,41.0,22.0,30.05,North,-999,-999.0,-999.0,47,-99.99,,,-99.99,,2013-01-10 22:25:00,
2013-01-10 16:43:00,40.0,21.0,30.05,North,-999,-999.0,-999.0,47,-99.99,,,-99.99,,2013-01-10 22:43:00,
2013-01-10 17:02:00,41.0,20.0,29.99,North,-999,-999.0,-999.0,43,-99.99,,,-99.99,,2013-01-10 23:02:00,
2013-01-10 17:12:00,41.0,20.0,29.99,North,-999,-999.0,-999.0,43,-99.99,,,-99.99,,2013-01-10 23:12:00,
2013-01-10 17:23:00,41.0,21.0,29.99,North,-999,-999.0,-999.0,44,-99.99,,,-99.99,,2013-01-10 23:23:00,
2013-01-10 17:33:00,40.0,21.0,29.99,North,-999,-999.0,-999.0,46,-99.99,,,-99.99,,2013-01-10 23:33:00,
2013-01-10 17:43:00,40.0,21.0,29.99,North,-999,-999.0,-999.0,46,-99.99,,,-99.99,,2013-01-10 23:43:00,
2013-01-10 17:53:00,40.0,22.0,29.96,North,-999,-999.0,-999.0,49,-99.99,,,-99.99,,2013-01-10 23:53:00,
2013-01-10 18:02:00,39.0,22.0,29.96,North,-999,-999.0,-999.0,51,-99.99,,,-99.99,,2013-01-11 00:02:00,
2013-01-10 18:12:00,39.0,22.0,29.96,North,-999,-999.0,-999.0,51,-99.99,,,-99.99,,2013-01-11 00:12:00,
2013-01-10 18:23:00,38.0,24.0,29.96,North,-999,-999.0,-999.0,57,-99.99,,,-99.99,,2013-01-11 00:23:00,
2013-01-10 18:33:00,38.0,25.0,29.96,North,-999,-999.0,-999.0,60,-99.99,,,-99.99,,2013-01-11 00:33:00,
2013-01-10 18:42:00,38.0,25.0,29.96,North,-999,-999.0,-999.0,60,-99.99,,,-99.99,,2013-01-11 00:42:00,
2013-01-10 18:53:00,37.0,28.0,29.96,North,-999,-999.0,-999.0,71,-99.99,,,-99.99,,2013-01-11 00:53:00,
2013-01-10 19:03:00,36.0,29.0,29.93,North,-999,-999.0,-999.0,75,-99.99,,,-99.99,,2013-01-11 01:03:00,
2013-01-10 19:13:00,36.0,29.0,29.93,North,-999,-999.0,-999.0,77,-99.99,,,-99.99,,2013-01-11 01:13:00,
2013-01-10 19:23:00,36.0,29.0,29.93,North,-999,-999.0,-999.0,77,-99.99,,,-99.99,,2013-01-11 01:23:00,
2013-01-10 19:33:00,36.0,30.0,29.93,North,-999,-999.0,-999.0,78,-99.99,,,-99.99,,2013-01-11 01:33:00,
2013-01-10 19:43:00,36.0,30.0,29.93,North,-999,-999.0,-999.0,78,-99.99,,,-99.99,,2013-01-11 01:43:00,
2013-01-10 19:53:00,36.0,30.0,29.90,North,-999,-999.0,-999.0,79,-99.99,,,-99.99,,2013-01-11 01:53:00,
2013-01-10 20:02:00,36.0,30.0,29.90,North,-999,-999.0,-999.0,79,-99.99,,,-99.99,,2013-01-11 02:02:00,
2013-01-10 20:13:00,36.0,30.0,29.90,North,-999,-999.0,-999.0,79,-99.99,,,-99.99,,2013-01-11 02:13:00,
2013-01-10 20:23:00,36.0,31.0,29.87,North,-999,-999.0,-999.0,81,-99.99,,,-99.99,,2013-01-11 02:23:00,
2013-01-10 20:33:00,36.0,31.0,29.87,North,-999,-999.0,-999.0,83,-99.99,,,-99.99,,2013-01-11 02:33:00,
2013-01-10 20:43:00,36.0,31.0,29.87,North,-999,-999.0,-999.0,83,-99.99,,,-99.99,,2013-01-11 02:43:00,
2013-01-10 20:54:00,36.0,30.0,29.84,North,-999,-999.0,-999.0,80,-99.99,,,-99.99,,2013-01-11 02:54:00,
2013-01-10 21:02:00,36.0,31.0,29.84,North,-999,-999.0,-999.0,82,-99.99,,,-99.99,,2013-01-11 03:02:00,
2013-01-10 21:12:00,36.0,31.0,29.84,North,-999,-999.0,-999.0,82,-99.99,,,-99.99,,2013-01-11 03:12:00,
2013-01-10 21:23:00,36.0,31.0,29.84,North,-999,-999.0,-999.0,83,-99.99,,,-99.99,,2013-01-11 03:23:00,
2013-01-10 21:33:00,36.0,31.0,29.84,North,-999,-999.0,-999.0,82,-99.99,,,-99.99,,2013-01-11 03:33:00,
2013-01-10 21:43:00,36.0,31.0,29.84,North,-999,-999.0,-999.0,82,-99.99,,,-99.99,,2013-01-11 03:43:00,
2013-01-10 21:53:00,36.0,31.0,29.84,North,-999,-999.0,-999.0,81,-99.99,,,-99.99,,2013-01-11 03:53:00,
2013-01-10 22:02:00,36.0,31.0,29.81,North,-999,-999.0,-999.0,82,-99.99,,,-99.99,,2013-01-11 04:02:00,
2013-01-10 22:12:00,36.0,31.0,29.81,North,-999,-999.0,-999.0,82,-99.99,,,-99.99,,2013-01-11 04:12:00,
2013-01-10 22:22:00,36.0,31.0,29.81,North,-999,-999.0,-999.0,82,-99.99,,,-99.99,,2013-01-11 04:22:00,
2013-01-10 22:33:00,36.0,31.0,29.78,North,-999,-999.0,-999.0,83,-99.99,,,-99.99,,2013-01-11 04:33:00,
2013-01-10 22:42:00,36.0,31.0,29.78,North,-999,-999.0,-999.0,83,-99.99,,,-99.99,,2013-01-11 04:42:00,
2013-01-10 22:53:00,36.0,31.0,29.78,North,-999,-999.0,-999.0,82,-99.99,,,-99.99,,2013-01-11 04:53:00,
2013-01-10 23:03:00,36.0,31.0,29.78,North,-999,-999.0,-999.0,82,-99.99,,,-99.99,,2013-01-11 05:03:00,
2013-01-10 23:12:00,36.0,31.0,29.78,North,-999,-999.0,-999.0,82,-99.99,,,-99.99,,2013-01-11 05:12:00,
2013-01-10 23:22:00,36.0,31.0,29.78,North,-999,-999.0,-999.0,83,-99.99,,,-99.99,,2013-01-11 05:22:00,
2013-01-10 23:33:00,36.0,31.0,29.78,North,-999,-999.0,-999.0,83,-99.99,,,-99.99,,2013-01-11 05:33:00,
2013-01-10 23:42:00,36.0,31.0,29.78,North,-999,-999.0,-999.0,83,-99.99,,,-99.99,,2013-01-11 05:42:00,
2013-01-10 23:53:00,36.0,32.0,29.78,North,-999,-999.0,-999.0,84,-99.99,,,-99.99,,2013-01-11 05:53:00,